Location: Unspecified
(0.0000°N, 0.0000°E)
Time: 04:10:39
(UTC+00:00)

deb Explorer IX - Visible Passes

Search period start: 29 May 2015 00:00
Search period end: 08 June 2015 00:00
Orbit: 548 x 1154 km, 38.8° (Epoch: 28 May)

Date Brightness Start Highest point End Pass type
(mag) Time Alt. Az. Time Alt. Az. Time Alt. Az.
30 May ? 19:40:58 10° NNE 19:41:13 10° NNE 19:41:13 10° NNE visible
31 May ? 19:26:14 10° N 19:28:09 14° NE 19:28:09 14° NE visible
01 Jun ? 19:11:44 10° N 19:14:25 17° NE 19:15:06 17° NE visible
02 Jun ? 18:57:21 10° N 19:00:28 21° NE 19:02:04 17° ENE visible
03 Jun ? 18:43:01 10° NNW 18:46:30 26° NE 18:49:03 15° E visible
03 Jun ? 20:30:26 10° W 20:30:59 13° W 20:30:59 13° W visible
04 Jun ? 18:28:44 10° NNW 18:32:30 32° NE 18:36:03 11° ESE visible
04 Jun ? 20:16:47 10° W 20:17:59 15° WSW 20:17:59 15° WSW visible
05 Jun ? 05:25:06 10° SSW 05:30:48 26° SE 05:36:58 10° E visible
05 Jun ? 20:03:14 10° WSW 20:04:58 15° SW 20:04:58 15° SW visible
06 Jun ? 05:10:40 10° SSW 05:16:36 29° SE 05:23:02 10° E visible
06 Jun ? 19:49:51 10° WSW 19:51:48 13° SW 19:51:58 13° SW visible
07 Jun ? 04:56:16 10° SSW 05:02:22 33° SE 05:09:03 10° ENE visible
07 Jun ? 19:37:07 10° SW 19:37:47 10° SW 19:38:14 10° SSW visible
